sat.trackr.live / text

‹ back to catalog

STARLINK-34207

NORAD 64333 · 2025-124S

PAYLOAD ACTIVE UNKNOWN

§ Identity

Operator
Country
US
Launch date
2025-06-10
Launch site
AFETR
Launch vehicle
Mass (kg)
RCS (m²)

Purposes: comms

External: N2YO · Heavens-Above · Gunter

§ Orbital elements

Epoch: 2026-05-25T03:45:52.501824Z

Period
94.27 min
Inclination
43.0009°
Eccentricity
0.0001406
Mean motion
15.27604209 rev/d
Perigee alt
482.0 km
Apogee alt
483.9 km
Semi-major
6,861.1 km
B*
1.1149e-3
RAAN
49.9895°
Arg perigee
267.7377°
Mean anomaly
92.3313°
Rev number
5,347

§ Raw data

STARLINK-342071 64333U 25124S   26145.15685766  .00030568  00000+0  11149-2 0  99942 64333  43.0009  49.9895 0001406 267.7377  92.3313 15.27604209 53477

JSON: /api/v1/satellites/64333 · /tle

For live sub-satellite position, see the globe view (requires WebGL).

§ Visibility from observer

Set your observer location to see the next 7 days of passes ≥ 10°. The values pass through the URL so the page stays shareable.

No JS? Fill the form by hand. The geolocation button needs JavaScript.